Location: Berville
(49.1893°N, 2.0748°E)
Time: 20:07:34
(UTC+00:00)

FENGYUN 1C DEB - Pass Details

Date: 01 March 2024
Orbit: 768 x 960 km, 99.0° (Epoch: 13 April)

Event Time Altitude Azimuth Distance (km) Brightness Sun altitude
Exits shadow 18:26:54 - 69° (ENE) 2,762 ? -9.2°
Reaches altitude 10° 18:27:26 10° 65° (ENE) 2,689 ? -9.3°
Maximum altitude 18:29:20 12° 46° (NE) 2,565 ? -9.6°
Drops below altitude 10° 18:31:13 10° 27° (NNE) 2,672 ? -9.9°
Sets 18:35:31 0° 357° (N) 3,586 ? -10.6°
